* Astronomy

Members Login
Username 
 
Password 
    Remember Me  
Post Info TOPIC: Comet C/2011 K1 (Schwartz-Holvorcem)


L

Posts: 131433
Date:
Comet C/2011 K1 (Schwartz-Holvorcem)
Permalink  
 


Orbital elements:
    C/2011 K1 (Schwartz-Holvorcem)
T 2011 Apr. 19.30639 TT                                 MPC
q   3.3529863            (2000.0)            P               Q
z  +0.0199994      Peri.  166.62755     -0.20437382     -0.56346183
                   Node    70.78280     -0.95790567     +0.28353677
e   0.9329424      Incl.  122.03767     -0.20161368     -0.77596241
From 61 observations 2011 May 26-31.

MPEC 2011 - L04

Comet C/2011 K1 (Schwartz-Holvorcem) was discovered on the 26th May, 2011, by M. Schwartz and P. R. Holvorcem.
The preliminary orbital elements of the comet indicate a perihelion passage on the 19th April, 2011, at a distance of 3.3 AU from the Sun.



__________________
Page 1 of 1  sorted by
 
Quick Reply

Please log in to post quick replies.



Create your own FREE Forum
Report Abuse
Powered by ActiveBoard